Regional Weather Roundup
Issued by NWS

Home | Current Version | Previous Version | Text Only | Print | Product List | Glossary Off
Versions: 1 2 3 4 5 6 7 8 9 10 11 12 13 14 15 16 17 18 19 20 21 22 23 24 25 26 27 28 29 30 31 32 33 34 35 36 37 38 39 40 41 42 43 44 45 46 47 48 49 50

000
ASUS43 KMKX 221900
RWRWI

WISCONSIN REGIONAL WEATHER ROUNDUP
NATIONAL WEATHER SERVICE MILWAUKEE/SULLIVAN WI
200 PM CDT FRI AUG 22 2014

NOTE: "FAIR" INDICATES FEW OR NO CLOUDS BELOW 12,000 FEET WITH NO
SIGNIFICANT WEATHER AND/OR OBSTRUCTIONS TO VISIBILITY.

WIZ001-002-006>008-014>016-023>028-222000-
NORTHWEST WISCONSIN

CITY           SKY/WX    TMP DP  RH WIND       PRES   REMARKS
SUPERIOR ARPT  CLOUDY    63  61  94 E5        30.01R
ASHLAND        CLOUDY    65  63  93 NE8       29.99F FOG
HAYWARD        CLOUDY    74  69  85 CALM      29.98S
SIREN          CLOUDY    69  65  87 N3        29.99S
RICE LAKE      CLOUDY    76  70  82 N5        29.98S
LADYSMITH      CLOUDY    74  72  92 CALM      29.98F FOG
EAU CLAIRE     NOT AVBL
MENOMONIE      PTCLDY    84  69  59 W5        29.95R HX  88
NEW RICHMOND   CLOUDY    73  69  87 NW3       29.99R
OSCEOLA        CLOUDY    73  71  92 W5        30.01R
$$

WIZ003>005-009-010-017-018-222000-
NORTH CENTRAL WISCONSIN

CITY           SKY/WX    TMP DP  RH WIND       PRES   REMARKS
WOODRUFF       CLOUDY    77  74  91 SE5       29.99S
RHINELANDER    LGT RAIN  71  68  90 SE5       30.00S
EAGLE RIVER    CLOUDY    72  68  88 SE3       29.99F
LAND O LAKES   CLOUDY    72  68  87 E6        30.01S
PHILLIPS       CLOUDY    71  69  95 CALM      29.98S
TOMAHAWK       CLOUDY    72  68  89 CALM      29.98F FOG
MEDFORD        DRZL/FOG  71  71 100 CALM      29.98S VSB 1
MERRILL        CLOUDY    71  70  98 CALM      29.98S FOG
$$

WIZ029-030-035-036-043>047-222000-
CENTRAL WISCONSIN

CITY           SKY/WX    TMP DP  RH WIND       PRES   REMARKS
WAUSAU         CLOUDY    78  72  81 SW3       29.95S HX  80
MOSINEE        PTSUNNY   79  75  89 CALM      29.97F FOG     HX  82
MARSHFIELD     CLOUDY    78  73  84 SW9       29.96S HX  81
STEVENS POINT  CLOUDY    81  72  75 S7        29.95F HX  85
WAUPACA        PTSUNNY   85  74  68 E5        29.95F HX  93
WAUTOMA        NOT AVBL
WISC RAPIDS    PTSUNNY   86  74  67 SW10      29.95F HX  94
CAMP DOUGLAS   NOT AVBL
$$

WIZ011>013-019>022-031-037>040-048>050-222000-
NORTHEAST WISCONSIN

CITY           SKY/WX    TMP DP  RH WIND       PRES   REMARKS
ANTIGO         FOG       68  68 100 E7        30.00S VSB 3/4
STURGEON BAY   CLOUDY    73  68  83 E8        29.98F
GREEN BAY      PTSUNNY   79  73  82 S5        29.96F HX  82
MANITOWOC      CLOUDY    75  72  88 E6        29.97F
APPLETON       PTSUNNY   81  73  78 SE6       29.96F HX  85
CLINTONVILLE   CLOUDY    79  72  78 SE6       29.95F HAZE    HX  82
OSHKOSH        SUNNY     81  74  79 E7        29.94F HX  86
$$

WIZ032>034-041-042-053>061-222000-
SOUTHWEST WISCONSIN

CITY           SKY/WX    TMP DP  RH WIND       PRES   REMARKS
LA CROSSE      CLOUDY    80  73  79 CALM      29.93F HX  84
SPARTA         CLOUDY    81  73  74 NW7       29.95S HX  86
VIROQUA        MOCLDY    85  76  76 SW6       29.96F HX  94
BOSCOBEL       PTSUNNY   89  73  59 SW5       29.92F HX  97
PRAIRIE DU CHI SUNNY     87  72  62 SW5       29.92F HX  93
PLATTEVILLE    FAIR      82  77  83 S6        29.96S HX  90
$$

WIZ056-057-062-063-064-067-068-222000-
SOUTH CENTRAL WISCONSIN

CITY           SKY/WX    TMP DP  RH WIND       PRES   REMARKS
BARABOO/DELLS  MOSUNNY   87  70  57 S3        29.94F HX  92
LONE ROCK      NOT AVBL
WATERTOWN      CLOUDY    84  76  78 CALM      29.93F HX  92
MADISON        PTSUNNY   84  73  69 VRB6      29.93F HX  90
MIDDLETON      FAIR      86  76  72 SW6       29.95S HX  96
MONROE         PTSUNNY   81  75  83 W3        29.95F HX  86
JANESVILLE     PTSUNNY   88  73  62 SW5       29.93F HX  96
$$

WIZ051-052-058>065-066-070>072-222000-
SOUTHEAST WISCONSIN

CITY           SKY/WX    TMP DP  RH WIND       PRES   REMARKS
MILWAUKEE      MOSUNNY   79  72  79 SE7       29.95F HX  82
WAUKESHA       PTSUNNY   81  72  74 SE5       29.95F HX  84
MILWAUKEE/TIMM SUNNY     81  70  69 SE6       29.95F HX  84
RACINE         MOSUNNY   80  73  79 E5        29.96F HX  84
BURLINGTON     PTSUNNY   80  74  81 CALM      29.94F HX  85
KENOSHA        PTSUNNY   81  74  79 E7        29.95F HX  86
FOND DU LAC    MOSUNNY   86  72  62 VRB3      29.94F HX  92
SHEBOYGAN      CLOUDY    79  72  79 E7        29.96F HX  82
WEST BEND      MOSUNNY   81  70  69 CALM      29.95F HX  84
JUNEAU         PTSUNNY   83  49  30 CALM      29.95F HX  81
$$

LSZ147-162-222000-
LAKE SUPERIOR

STATION/POSITION TIME  TEMP    WIND        PRES    WAVE
                       AIR SEA DIR/SP/G            HT/PER
                 (UTC) (F)     (DEG/KT/KT) (MB)    (FT/S)
W MID LAKE BUOY  1750   57 58   30/ 12/ 14 1015.4R   2/ 4
DEVILS ISLAND    1800   59      50/ 11/ 12 1015.8R
PORT WING        1840   59      30/  9/ 10 1015.9S
SAXON HARBOR     1800   63        CALM     1015.6
$$

LMZ867-665-643>646-222000-
LAKE MICHIGAN

STATION/POSITION TIME  TEMP    WIND        PRES    WAVE
                       AIR SEA DIR/SP/G            HT/PER
                 (UTC) (F)     (DEG/KT/KT) (MB)    (FT/S)
N MID LAKE BUOY  1750   68 66  150/  4/  4 1015.2R   0
NORTHPORT PIER   1800   66     140/  4/  5 1015.6S
SISTER BAY       1711   77     180/  7/ 10   N/A
KEWAUNEE LAKESHO 1800   68     100/  1/  2 1014.5F
SHEBOYGAN LAKESH 1800   68 65  140/  4/  5 1015.1S
ATWATER BUOY     1800   71     170/  6/  8 1015.7F
MILWAUKEE LAKESH 1800   70     150/  5/  6   N/A
S MID LAKE BUOY  1750   71 71  170/  2/  4 1014.7R   0
KENOSHA   LAKESH 1800   72      60/  5/  6 1013.9F
$$

TC  - TEMPERATURE IN CELSIUS
VSB - VISIBILITY IN STATUTE MILES
WCI - WIND CHILL INDEX
HX  - HEAT INDEX




USA.gov is the U.S. government's official web portal to all federal, state and local government web resources and services.